�v������,���r���O(���x),�����t���O,���r���O(���x),�����t���O,��1(���x),�����t���O,�������x,�����t���O,�C�ۑ�(���x),�����t���O,�C�ۑ�(���x),�����t���O
7/1/2003 0:00,27.7,0,61.2,0,28.6,0,24.5,0,23.6,0,76.8,0
7/1/2003 0:15,27.1,0,61,0,28.6,0,24.5,0,23.5,0,77.1,0
7/1/2003 0:30,26.9,0,61,0,28.6,0,24.6,0,23.4,0,77.3,0
7/1/2003 0:45,26.8,0,61,0,28.5,0,24.6,0,23.3,0,77.6,0
7/1/2003 1:00,26.9,0,61.2,0,28.5,0,24.7,0,23.2,0,77.8,0
7/1/2003 1:15,27.1,0,61.2,0,28.5,0,24.7,0,23.1,0,78.1,0
7/1/2003 1:30,27.2,0,61.3,0,28.5,0,24.8,0,23.1,0,78.3,0
7/1/2003 1:45,27.2,0,61.4,0,28.4,0,24.8,0,23,0,78.6,0
7/1/2003 2:00,27.3,0,61.6,0,28.4,0,24.9,0,23,0,78.8,0
7/1/2003 2:15,27.3,0,63,0,28.3,0,24.9,0,23,0,79.1,0
7/1/2003 2:30,27.3,0,63.1,0,28.3,0,23.6,0,23,0,79.3,0
7/1/2003 2:45,27.3,0,58.4,0,28.1,0,23.6,0,23,0,79.6,0
7/1/2003 3:00,27.3,0,51.9,0,27.6,0,23.7,0,23,0,79.8,0
7/1/2003 3:15,27.3,0,56.4,0,27.7,0,23.7,0,23,0,79.8,0
7/1/2003 3:30,27.3,0,57.4,0,27.7,0,23.8,0,23.1,0,79.8,0
7/1/2003 3:45,27.3,0,58.7,0,27.7,0,23.8,0,23.1,0,79.8,0
7/1/2003 4:00,27.3,0,59.8,0,27.8,0,23.9,0,23.2,0,79.8,0
7/1/2003 4:15,27.3,0,60.2,0,27.8,0,23.9,0,23.1,0,78.8,0
7/1/2003 4:30,27.3,0,60.7,0,27.9,0,24,0,23.1,0,77.8,0
7/1/2003 4:45,27.2,0,61.1,0,27.9,0,24,0,23,0,76.8,0
7/1/2003 5:00,27.2,0,61.3,0,27.9,0,24.1,0,23,0,75.8,0
7/1/2003 5:15,27.3,0,60.2,0,27.9,0,23.7,0,23,0,75.8,0
7/1/2003 5:30,27.3,0,53.4,0,27.5,0,23.7,0,23,0,75.8,0
7/1/2003 5:45,27.5,0,51,0,27,0,23.7,0,23.1,0,75.8,0
7/1/2003 6:00,27.5,0,50.1,0,26.6,0,23.8,0,23.1,0,75.8,0
7/1/2003 6:15,27.6,0,50,0,26.3,0,23.8,0,23.1,0,75.8,0
7/1/2003 6:30,27.6,0,52.9,0,26,0,23.4,0,23,0,75.8,0
7/1/2003 6:45,27.7,0,57.3,0,26.1,0,23.4,0,23,0,75.8,0
7/1/2003 7:00,27.7,0,60.5,0,26.3,0,23.5,0,23,0,75.8,0
7/1/2003 7:15,27.8,0,61,0,26.4,0,23.5,0,22.9,0,75.1,0
7/1/2003 7:30,27.9,0,62.3,0,26.6,0,23.6,0,22.8,0,74.3,0
7/1/2003 7:45,27.9,0,57.5,0,26.5,0,23.6,0,22.7,0,73.6,0
7/1/2003 8:00,27.9,0,60.5,0,26.5,0,23.4,0,22.6,0,72.8,0
7/1/2003 8:15,28,0,63,0,26.8,0,23.4,0,22.3,0,73.6,0
7/1/2003 8:30,28.1,0,62.9,0,26.9,0,23.4,0,22,0,74.3,0
7/1/2003 8:45,28.2,0,62.6,0,27,0,23.5,0,21.7,0,75.1,0
7/1/2003 9:00,28.2,0,62.4,0,27.1,0,23.5,0,21.4,0,75.8,0
7/1/2003 9:15,28.3,0,62.4,0,27.1,0,23.6,0,21.5,0,75.6,0
7/1/2003 9:30,28.3,0,62.2,0,27.2,0,23.6,0,21.6,0,75.3,0
7/1/2003 9:45,28.4,0,62,0,27.2,0,23.7,0,21.7,0,75.1,0
7/1/2003 10:00,28.4,0,61.9,0,27.2,0,23.7,0,21.8,0,74.8,0
7/1/2003 10:15,28.4,0,61.7,0,27.3,0,23.8,0,21.7,0,75.8,0
7/1/2003 10:30,28.5,0,61.9,0,27.3,0,23.8,0,21.5,0,76.8,0
7/1/2003 10:45,28.5,0,61.6,0,27.3,0,23.8,0,21.4,0,77.8,0
7/1/2003 11:00,28.5,0,61.7,0,27.3,0,23.9,0,21.3,0,78.8,0
7/1/2003 11:15,28.5,0,61.7,0,27.3,0,23.9,0,21.6,0,77.6,0
7/1/2003 11:30,28.5,0,61.7,0,27.3,0,24,0,21.9,0,76.3,0
7/1/2003 11:45,28.5,0,61.7,0,27.3,0,24,0,22.3,0,75.1,0
7/1/2003 12:00,28.6,0,61.6,0,27.4,0,24.1,0,22.6,0,73.8,0
7/1/2003 12:15,28.6,0,61.7,0,27.4,0,24.1,0,22.5,0,74.3,0
7/1/2003 12:30,28.6,0,61.8,0,27.4,0,24.1,0,22.5,0,74.8,0
7/1/2003 12:45,28.6,0,61.7,0,27.4,0,24.2,0,22.4,0,75.3,0
7/1/2003 13:00,28.6,0,61.8,0,27.3,0,24.2,0,22.4,0,75.8,0
7/1/2003 13:15,28.6,0,61.7,0,27.3,0,24.2,0,22.4,0,76.1,0
7/1/2003 13:30,28.5,0,61.8,0,27.3,0,24.3,0,22.3,0,76.3,0
7/1/2003 13:45,28.5,0,62,0,27.3,0,24.3,0,22.3,0,76.6,0
7/1/2003 14:00,28.5,0,62,0,27.3,0,24.3,0,22.3,0,76.8,0
7/1/2003 14:15,28.5,0,62.2,0,27.3,0,24.4,0,22.3,0,77.1,0
7/1/2003 14:30,28.5,0,62.2,0,27.3,0,24.4,0,22.3,0,77.3,0
7/1/2003 14:45,28.5,0,62.3,0,27.3,0,24.4,0,22.3,0,77.6,0
7/1/2003 15:00,28.5,0,62.3,0,27.3,0,24.4,0,22.3,0,77.8,0
7/1/2003 15:15,28.5,0,62.3,0,27.3,0,24.5,0,22.2,0,77.3,0
7/1/2003 15:30,28.5,0,62.2,0,27.3,0,24.5,0,22.1,0,76.8,0
7/1/2003 15:45,28.4,0,62.2,0,27.2,0,24.5,0,22,0,76.3,0
7/1/2003 16:00,28.4,0,62.2,0,27.2,0,24.6,0,21.9,0,75.8,0
7/1/2003 16:15,28.4,0,62.3,0,27.2,0,24.6,0,21.8,0,76.8,0
7/1/2003 16:30,28.4,0,62.4,0,27.2,0,24.6,0,21.6,0,77.8,0
7/1/2003 16:45,28.3,0,62.5,0,27.1,0,24.6,0,21.5,0,78.8,0
7/1/2003 17:00,28.2,0,62.2,0,27.1,0,24.6,0,21.4,0,79.8,0
7/1/2003 17:15,28.2,0,62.3,0,27,0,24.7,0,21.2,0,80.3,0
7/1/2003 17:30,28.2,0,62.4,0,27,0,24.7,0,21.1,0,80.8,0
7/1/2003 17:45,28.1,0,62.4,0,27,0,24.7,0,20.9,0,81.3,0
7/1/2003 18:00,28,0,62.4,0,26.9,0,24.7,0,20.8,0,81.8,0
7/1/2003 18:15,28,0,62.5,0,26.9,0,24.7,0,20.7,0,82.6,0
7/1/2003 18:30,27.9,0,62.6,0,26.8,0,24.8,0,20.6,0,83.3,0
7/1/2003 18:45,27.9,0,59.5,0,26.6,0,24.8,0,20.5,0,84.1,0
7/1/2003 19:00,27.8,0,57.1,0,26.1,0,24.8,0,20.4,0,84.8,0
7/1/2003 19:15,27.7,0,58.8,0,26.2,0,24.8,0,20.3,0,84.6,0
7/1/2003 19:30,27.7,0,60.3,0,26.2,0,24.8,0,20.3,0,84.3,0
7/1/2003 19:45,27.6,0,60.3,0,26.2,0,24.8,0,20.2,0,84.1,0
7/1/2003 20:00,27.5,0,61.8,0,26.2,0,24.9,0,20.2,0,83.8,0
7/1/2003 20:15,27.5,0,62.9,0,26.2,0,24.3,0,20.1,0,83.8,0
7/1/2003 20:30,27.4,0,62.6,0,26.2,0,24.4,0,20,0,83.8,0
7/1/2003 20:45,27.3,0,62.7,0,26.1,0,24.2,0,19.9,0,83.8,0
7/1/2003 21:00,27.2,0,63.6,0,26.1,0,24.2,0,19.8,0,83.8,0
7/1/2003 21:15,27.2,0,65.8,0,26.1,0,24.2,0,19.8,0,83.6,0
7/1/2003 21:30,27.2,0,65.3,0,26.1,0,24.2,0,19.8,0,83.3,0
7/1/2003 21:45,27.2,0,65.3,0,26.2,0,24.3,0,19.8,0,83.1,0
7/1/2003 22:00,27.2,0,64.6,0,26.1,0,24.3,0,19.8,0,82.8,0
7/1/2003 22:15,27.2,0,64.9,0,26.1,0,24.3,0,19.8,0,83.3,0
7/1/2003 22:30,27.2,0,65.2,0,26.1,0,24.3,0,19.7,0,83.8,0
7/1/2003 22:45,27.2,0,65.4,0,26.1,0,24.4,0,19.7,0,84.3,0
7/1/2003 23:00,27.2,0,64.3,0,26.1,0,23.9,0,19.7,0,84.8,0
7/1/2003 23:15,27.2,0,64.8,0,26.1,0,23.9,0,19.6,0,85.6,0
7/1/2003 23:30,27.2,0,66.6,0,26.1,0,24,0,19.5,0,86.3,0
7/1/2003 23:45,27.3,0,66.3,0,26.2,0,24,0,19.5,0,87.1,0
7/2/2003 0:00,27.3,0,65.4,0,26.2,0,24,0,19.4,0,87.8,0
7/2/2003 0:15,27.3,0,64.9,0,26.1,0,24,0,19.4,0,87.6,0
7/2/2003 0:30,27.3,0,64.8,0,26.1,0,24,0,19.5,0,87.3,0
7/2/2003 0:45,27.3,0,64.6,0,26.1,0,24.1,0,19.5,0,87.1,0
7/2/2003 1:00,27.3,0,64.5,0,26.1,0,24.1,0,19.6,0,86.8,0
7/2/2003 1:15,27.2,0,64.3,0,26.1,0,24.1,0,19.6,0,86.6,0
7/2/2003 1:30,27.2,0,62.3,0,26.1,0,24.1,0,19.6,0,86.3,0
7/2/2003 1:45,27.2,0,62.3,0,26,0,24.1,0,19.6,0,86.1,0
7/2/2003 2:00,27.1,0,62.2,0,26,0,24.1,0,19.6,0,85.8,0
7/2/2003 2:15,27,0,62.2,0,25.9,0,24.2,0,19.7,0,85.8,0
7/2/2003 2:30,27,0,62,0,25.8,0,24.2,0,19.7,0,85.8,0
7/2/2003 2:45,26.9,0,61.9,0,25.7,0,24.2,0,19.8,0,85.8,0
7/2/2003 3:00,26.9,0,61.9,0,25.6,0,24.2,0,19.9,0,85.8,0
7/2/2003 3:15,26.8,0,61.9,0,25.5,0,24.2,0,19.9,0,85.6,0
7/2/2003 3:30,26.8,0,61.9,0,25.4,0,24.2,0,19.9,0,85.3,0
7/2/2003 3:45,26.7,0,61.9,0,25.3,0,24.2,0,19.9,0,85.1,0
7/2/2003 4:00,26.7,0,62,0,25.3,0,24.2,0,19.9,0,84.8,0
7/2/2003 4:15,26.6,0,62.1,0,25.2,0,23.6,0,19.9,0,84.6,0
7/2/2003 4:30,26.6,0,62.3,0,25.1,0,23.7,0,19.9,0,84.3,0
7/2/2003 4:45,26.5,0,62.4,0,25.1,0,23.7,0,19.9,0,84.1,0
7/2/2003 5:00,26.5,0,62.7,0,25.1,0,23.7,0,19.9,0,83.8,0
7/2/2003 5:15,26.5,0,63,0,25,0,23.7,0,19.9,0,83.6,0
7/2/2003 5:30,26.4,0,63,0,25,0,23.7,0,20,0,83.3,0
7/2/2003 5:45,26.4,0,63,0,25,0,23.7,0,20,0,83.1,0
7/2/2003 6:00,26.4,0,63.2,0,24.9,0,23.8,0,20.1,0,82.8,0
7/2/2003 6:15,26.3,0,63.3,0,24.9,0,23.8,0,20.2,0,82.6,0
7/2/2003 6:30,26.3,0,63.6,0,24.9,0,23.8,0,20.3,0,82.3,0
7/2/2003 6:45,26.3,0,63.5,0,24.9,0,23.5,0,20.5,0,82.1,0
7/2/2003 7:00,26.3,0,63.4,0,25,0,23.6,0,20.6,0,81.8,0
7/2/2003 7:15,26.4,0,65.3,0,25.1,0,23.6,0,20.7,0,80.6,0
7/2/2003 7:30,26.4,0,65.4,0,25.1,0,23.6,0,20.9,0,79.3,0
7/2/2003 7:45,26.4,0,65.2,0,25.1,0,23.6,0,21,0,78.1,0
7/2/2003 8:00,26.4,0,63.8,0,25.2,0,23.6,0,21.2,0,76.8,0
7/2/2003 8:15,26.4,0,63.6,0,25.2,0,23.7,0,21.4,0,75.6,0
7/2/2003 8:30,26.4,0,63.7,0,25.3,0,23.7,0,21.6,0,74.3,0
7/2/2003 8:45,26.5,0,66,0,25.3,0,23.7,0,21.8,0,73.1,0
7/2/2003 9:00,26.5,0,66.4,0,25.4,0,23.7,0,22,0,71.8,0
7/2/2003 9:15,26.6,0,65.2,0,25.5,0,23.7,0,22.4,0,69.6,0
7/2/2003 9:30,26.7,0,64.7,0,25.6,0,23.8,0,22.7,0,67.3,0
7/2/2003 9:45,26.8,0,64.4,0,25.6,0,23.8,0,23.1,0,65.1,0
7/2/2003 10:00,26.7,0,64.1,0,25.7,0,23.8,0,23.5,0,62.8,0
7/2/2003 10:15,26.7,0,63.7,0,25.8,0,23.8,0,23.8,0,62.5,0
7/2/2003 10:30,26.7,0,63.4,0,26,0,23.8,0,24.2,0,62.3,0
7/2/2003 10:45,26.8,0,63.1,0,26.1,0,23.9,0,24.5,0,62,0
7/2/2003 11:00,26.9,0,63,0,26.1,0,23.9,0,24.9,0,61.8,0
7/2/2003 11:15,26.9,0,62.8,0,26.2,0,23.9,0,25,0,60.8,0
7/2/2003 11:30,27,0,62.5,0,26.3,0,23.9,0,25.1,0,59.8,0
7/2/2003 11:45,27.1,0,62,0,26.4,0,23.9,0,25.3,0,58.8,0
7/2/2003 12:00,27.2,0,62.1,0,26.5,0,24,0,25.4,0,57.8,0
7/2/2003 12:15,27.4,0,62.3,0,26.6,0,24,0,25.5,0,57,0
7/2/2003 12:30,27.5,0,62.1,0,26.8,0,24,0,25.5,0,56.3,0
7/2/2003 12:45,27.6,0,61.1,0,26.9,0,24,0,25.6,0,55.5,0
7/2/2003 13:00,27.7,0,59.8,0,27.1,0,24.1,0,25.7,0,54.8,0
7/2/2003 13:15,27.9,0,60.1,0,27.4,0,24.1,0,25.7,0,55,0
7/2/2003 13:30,28.2,0,59,0,27.5,0,24.1,0,25.7,0,55.3,0
7/2/2003 13:45,28.3,0,58.4,0,27.6,0,24.1,0,25.7,0,55.5,0
7/2/2003 14:00,28.4,0,57.8,0,27.8,0,24.1,0,25.7,0,55.8,0
7/2/2003 14:15,28.6,0,56.6,0,28,0,24.2,0,25.8,0,55.5,0
7/2/2003 14:30,28.7,0,56.4,0,28.1,0,24.2,0,25.8,0,55.3,0
7/2/2003 14:45,28.8,0,57.1,0,28.3,0,24.2,0,25.9,0,55,0
7/2/2003 15:00,28.9,0,56.2,0,28.4,0,24.2,0,26,0,54.8,0
7/2/2003 15:15,29,0,56.5,0,28.5,0,24.3,0,25.9,0,55.3,0
7/2/2003 15:30,29.1,0,56.5,0,28.7,0,24.3,0,25.8,0,55.8,0
7/2/2003 15:45,29.1,0,55.3,0,28.8,0,23.5,0,25.8,0,56.3,0
7/2/2003 16:00,29.1,0,55.9,0,28.9,0,23.5,0,25.7,0,56.8,0
7/2/2003 16:15,29,0,55.5,0,29,0,23.6,0,25.6,0,57.3,0
7/2/2003 16:30,29.1,0,53.3,0,29.1,0,23.6,0,25.5,0,57.8,0
7/2/2003 16:45,29.1,0,54,0,29.2,0,23.7,0,25.4,0,58.3,0
7/2/2003 17:00,29,0,54.6,0,29.2,0,23.7,0,25.3,0,58.8,0
7/2/2003 17:15,29.3,0,54.5,0,29.3,0,23.7,0,25.2,0,59.5,0
7/2/2003 17:30,29.4,0,55.2,0,29.2,0,23.7,0,25.1,0,60.3,0
7/2/2003 17:45,29.2,0,54.9,0,29.1,0,23.5,0,25.1,0,61,0
7/2/2003 18:00,28.8,0,56.5,0,29.1,0,23.6,0,25,0,61.8,0
7/2/2003 18:15,28.3,0,54.4,0,29.1,0,23.7,0,24.7,0,63.1,0
7/2/2003 18:30,27.9,0,55.2,0,28.8,0,23.8,0,24.4,0,64.3,0
7/2/2003 18:45,27.4,0,52.7,0,28.6,0,23.9,0,24.2,0,65.6,0
7/2/2003 19:00,27,0,55.1,0,28.5,0,23.9,0,23.9,0,66.8,0
7/2/2003 19:15,26.6,0,55.8,0,28.4,0,24,0,23.6,0,66.3,0
7/2/2003 19:30,26.6,0,54.4,0,28.1,0,23.6,0,23.3,0,65.8,0
7/2/2003 19:45,26.7,0,47.8,0,27.5,0,23.7,0,23.1,0,65.3,0
7/2/2003 20:00,26.8,0,51.8,0,27.1,0,23.7,0,22.8,0,64.8,0
7/2/2003 20:15,26.8,0,52.1,0,26.9,0,23.7,0,22.6,0,65.6,0
7/2/2003 20:30,26.8,0,55.2,0,27,0,23.8,0,22.5,0,66.3,0
7/2/2003 20:45,26.8,0,56.5,0,27,0,23.8,0,22.3,0,67.1,0
7/2/2003 21:00,26.8,0,57.4,0,27.1,0,23.8,0,22.2,0,67.8,0
7/2/2003 21:15,26.7,0,57.3,0,27.1,0,23.9,0,22,0,69.1,0
7/2/2003 21:30,26.7,0,57.8,0,27.2,0,23.9,0,21.9,0,70.3,0
7/2/2003 21:45,26.8,0,57.9,0,27.2,0,24,0,21.7,0,71.6,0
7/2/2003 22:00,26.7,0,58,0,27.2,0,24,0,21.6,0,72.8,0
7/2/2003 22:15,26.1,0,57.7,0,27.1,0,24,0,21.4,0,73.1,0
7/2/2003 22:30,26.1,0,57.4,0,27.1,0,24.1,0,21.2,0,73.3,0
7/2/2003 22:45,26,0,57.3,0,27,0,24.1,0,21,0,73.6,0
7/2/2003 23:00,26,0,58.4,0,26.9,0,24.1,0,20.8,0,73.8,0
7/2/2003 23:15,25.9,0,57.3,0,26.9,0,23.2,0,20.7,0,74.3,0
7/2/2003 23:30,25.8,0,55.5,0,26.5,0,23.3,0,20.5,0,74.8,0
7/2/2003 23:45,25.7,0,56.8,0,26.5,0,23.3,0,20.4,0,75.3,0
7/3/2003 0:00,25.9,0,57.4,0,26.6,0,23.4,0,20.3,0,75.8,0
7/3/2003 0:15,26,0,57.9,0,26.6,0,23.4,0,20.3,0,76.1,0
7/3/2003 0:30,26,0,58.2,0,26.6,0,23.4,0,20.3,0,76.3,0
7/3/2003 0:45,26.1,0,58.3,0,26.6,0,23.5,0,20.4,0,76.6,0
7/3/2003 1:00,26.1,0,58.4,0,26.6,0,23.5,0,20.4,0,76.8,0
7/3/2003 1:15,26.2,0,58.5,0,26.6,0,23.5,0,20.4,0,76.6,0
7/3/2003 1:30,26.2,0,58.7,0,26.6,0,23.6,0,20.3,0,76.3,0
7/3/2003 1:45,26.2,0,58.6,0,26.6,0,23.6,0,20.3,0,76.1,0
7/3/2003 2:00,26.3,0,58.5,0,26.6,0,23.7,0,20.3,0,75.8,0
7/3/2003 2:15,26.3,0,58.7,0,26.6,0,23.7,0,20.3,0,76.1,0
7/3/2003 2:30,26.3,0,59.1,0,26.5,0,23.7,0,20.2,0,76.3,0
7/3/2003 2:45,26.3,0,59.6,0,26.5,0,23.8,0,20.2,0,76.6,0
7/3/2003 3:00,26.3,0,59.5,0,26.5,0,23.8,0,20.2,0,76.8,0
7/3/2003 3:15,26.3,0,59.8,0,26.4,0,23.8,0,20.2,0,77.3,0
7/3/2003 3:30,26.3,0,59.4,0,26.4,0,23.8,0,20.2,0,77.8,0
7/3/2003 3:45,26.2,0,59.6,0,26.4,0,23.9,0,20.2,0,78.3,0
7/3/2003 4:00,26.2,0,59.9,0,26.3,0,23.7,0,20.2,0,78.8,0
7/3/2003 4:15,26.2,0,59.9,0,26.3,0,23.1,0,20.2,0,79.1,0
7/3/2003 4:30,26.2,0,59.9,0,26.3,0,23.1,0,20.2,0,79.3,0
7/3/2003 4:45,26.2,0,60.2,0,26.3,0,23.2,0,20.3,0,79.6,0
7/3/2003 5:00,26.2,0,60.2,0,26.2,0,23.2,0,20.3,0,79.8,0
7/3/2003 5:15,26.2,0,60,0,26.2,0,23.2,0,20.4,0,79.6,0
7/3/2003 5:30,26.1,0,60.1,0,26.2,0,23.2,0,20.4,0,79.3,0
7/3/2003 5:45,26.1,0,60.4,0,26.1,0,23.3,0,20.5,0,79.1,0
7/3/2003 6:00,26.1,0,60.2,0,26.1,0,23.3,0,20.6,0,78.8,0
7/3/2003 6:15,26.1,0,61.1,0,26.1,0,23.3,0,20.6,0,78.6,0
7/3/2003 6:30,26,0,61.3,0,26.2,0,23.4,0,20.7,0,78.3,0
7/3/2003 6:45,26,0,61.8,0,26.2,0,23.4,0,20.7,0,78.1,0
7/3/2003 7:00,26,0,62.5,0,26.2,0,23,0,20.8,0,77.8,0
7/3/2003 7:15,26.1,0,62.9,0,26.3,0,23.1,0,20.9,0,78.1,0
7/3/2003 7:30,26.1,0,63.1,0,26.3,0,23.1,0,21.1,0,78.3,0
7/3/2003 7:45,26.3,0,63.9,0,26.3,0,23.1,0,21.2,0,78.6,0
7/3/2003 8:00,29.9,0,62.4,0,26.3,0,23.1,0,21.4,0,78.8,0
7/3/2003 8:15,30.8,0,59.6,0,26.4,0,23.2,0,21.6,0,77.8,0
7/3/2003 8:30,30,0,59.1,0,26.3,0,23.2,0,21.7,0,76.8,0
7/3/2003 8:45,29.2,0,59.2,0,26.3,0,23.2,0,21.9,0,75.8,0
7/3/2003 9:00,28.6,0,59.1,0,26.3,0,23.3,0,22.1,0,74.8,0
7/3/2003 9:15,28.2,0,59.2,0,26.3,0,23.3,0,22.5,0,73.8,0
7/3/2003 9:30,27.9,0,59.2,0,26.3,0,23.3,0,23,0,72.8,0
7/3/2003 9:45,27.7,0,59.1,0,26.3,0,23.3,0,23.4,0,71.8,0
7/3/2003 10:00,27.5,0,59.2,0,26.3,0,23.4,0,23.9,0,70.8,0
7/3/2003 10:15,27.5,0,59.2,0,26.3,0,23.4,0,24,0,70.6,0
7/3/2003 10:30,27.4,0,59.4,0,26.3,0,23.4,0,24.1,0,70.3,0
7/3/2003 10:45,27.4,0,59.5,0,26.4,0,23.4,0,24.2,0,70.1,0
7/3/2003 11:00,27.5,0,59.8,0,26.4,0,23.5,0,24.3,0,69.8,0
7/3/2003 11:15,27.5,0,60,0,26.5,0,23.5,0,24.5,0,68.8,0
7/3/2003 11:30,27.6,0,60,0,26.5,0,23.5,0,24.8,0,67.8,0
7/3/2003 11:45,27.6,0,60.2,0,26.6,0,23.5,0,25,0,66.8,0
7/3/2003 12:00,27.7,0,60.5,0,26.7,0,23.5,0,25.3,0,65.8,0
7/3/2003 12:15,27.8,0,60.3,0,26.7,0,23.6,0,25.5,0,64.3,0
7/3/2003 12:30,27.9,0,60.7,0,26.8,0,23.6,0,25.7,0,62.8,0
7/3/2003 12:45,28,0,60.5,0,26.9,0,23.6,0,25.9,0,61.3,0
7/3/2003 13:00,28.1,0,60.9,0,27,0,23.6,0,26.1,0,59.8,0
7/3/2003 13:15,28.2,0,60.9,0,27.1,0,23.7,0,26,0,59.8,0
7/3/2003 13:30,28.4,0,61,0,27.2,0,23.7,0,25.9,0,59.8,0
7/3/2003 13:45,28.5,0,60.8,0,27.2,0,23.7,0,25.8,0,59.8,0
7/3/2003 14:00,28.6,0,60.7,0,27.3,0,23.7,0,25.7,0,59.8,0
7/3/2003 14:15,28.6,0,60.5,0,27.4,0,23.8,0,25.8,0,59,0
7/3/2003 14:30,28.7,0,60.4,0,27.4,0,23.8,0,25.8,0,58.3,0
7/3/2003 14:45,28.8,0,60.3,0,27.5,0,23.8,0,25.9,0,57.5,0
7/3/2003 15:00,28.9,0,60.2,0,27.6,0,23.8,0,26,0,56.8,0
7/3/2003 15:15,29,0,60.1,0,27.6,0,23.9,0,25.8,0,59.1,0
7/3/2003 15:30,29.1,0,60,0,27.7,0,23.9,0,25.6,0,61.3,0
7/3/2003 15:45,29.2,0,60,0,27.7,0,23.9,0,25.4,0,63.6,0
7/3/2003 16:00,29.2,0,60,0,27.8,0,24,0,25.2,0,65.8,0
7/3/2003 16:15,29.2,0,59.9,0,27.8,0,24,0,25.1,0,65.6,0
7/3/2003 16:30,29.3,0,59.9,0,27.8,0,24,0,25,0,65.3,0
7/3/2003 16:45,29.3,0,59.7,0,27.8,0,24,0,24.9,0,65.1,0
7/3/2003 17:00,29.3,0,59.7,0,27.8,0,24.1,0,24.8,0,64.8,0
7/3/2003 17:15,29.3,0,59.6,0,27.8,0,24.1,0,24.7,0,64.6,0
7/3/2003 17:30,29.3,0,59.5,0,27.8,0,24.1,0,24.6,0,64.3,0
7/3/2003 17:45,29.2,0,59.5,0,27.8,0,24.1,0,24.6,0,64.1,0
7/3/2003 18:00,29.2,0,59.5,0,27.8,0,24.2,0,24.5,0,63.8,0
7/3/2003 18:15,29.2,0,59.5,0,27.7,0,24.2,0,24.3,0,65.8,0
7/3/2003 18:30,29.2,0,58.4,0,27.3,0,24.2,0,24.2,0,67.8,0
7/3/2003 18:45,29.1,0,54.5,0,27,0,24.2,0,24,0,69.8,0
7/3/2003 19:00,29.1,0,56.1,0,27.1,0,24.3,0,23.9,0,71.8,0
7/3/2003 19:15,28.9,0,59.2,0,27.1,0,24,0,23.7,0,72.3,0
7/3/2003 19:30,28.7,0,61,0,27.2,0,24,0,23.5,0,72.8,0
7/3/2003 19:45,28.5,0,61.5,0,27.3,0,24,0,23.4,0,73.3,0
7/3/2003 20:00,28.2,0,61,0,27.3,0,23.7,0,23.2,0,73.8,0
7/3/2003 20:15,28.1,0,63.7,0,27.4,0,23.8,0,23,0,75.8,0
7/3/2003 20:30,27.9,0,64.4,0,27.4,0,23.8,0,22.7,0,77.8,0
7/3/2003 20:45,27.7,0,65.4,0,27.5,0,23.8,0,22.5,0,79.8,0
7/3/2003 21:00,27.6,0,64.3,0,27.6,0,23.9,0,22.3,0,81.8,0
7/3/2003 21:15,27.5,0,57.2,0,27.3,0,23.9,0,22.3,0,82.8,0
7/3/2003 21:30,27.3,0,53.7,0,27,0,23.9,0,22.3,0,83.8,0
7/3/2003 21:45,27.3,0,60.7,0,26.9,0,24,0,22.3,0,84.8,0
7/3/2003 22:00,27.3,0,63.7,0,26.9,0,24,0,22.3,0,85.8,0
7/3/2003 22:15,27.4,0,65.8,0,27,0,24,0,22.4,0,85.6,0
7/3/2003 22:30,27.4,0,66.2,0,27.1,0,24.1,0,22.5,0,85.3,0
7/3/2003 22:45,27.4,0,65.8,0,27.2,0,24.1,0,22.7,0,85.1,0
7/3/2003 23:00,27.4,0,65.4,0,27.3,0,24.1,0,22.8,0,84.8,0
7/3/2003 23:15,27.4,0,65.3,0,27.3,0,24.2,0,22.6,0,85.6,0
7/3/2003 23:30,27.4,0,64,0,27.4,0,24.2,0,22.5,0,86.3,0
7/3/2003 23:45,27.4,0,64.9,0,27.4,0,24.2,0,22.3,0,87.1,0
7/4/2003 0:00,27.4,0,64.4,0,27.5,0,23.8,0,22.2,0,87.8,0
7/4/2003 0:15,27.1,0,64.8,0,27.6,0,23.8,0,22.2,0,88.3,0
7/4/2003 0:30,26.7,0,64,0,27.6,0,23.8,0,22.2,0,88.8,0
7/4/2003 0:45,26.5,0,62.7,0,27.6,0,23.9,0,22.2,0,89.3,0
7/4/2003 1:00,26.4,0,62.1,0,27.6,0,23.9,0,22.2,0,89.8,0
7/4/2003 1:15,26.4,0,61.5,0,27.6,0,23.9,0,22.1,0,89.6,0
7/4/2003 1:30,26.3,0,61.2,0,27.6,0,24,0,22.1,0,89.3,0
7/4/2003 1:45,26.2,0,60.7,0,27.6,0,24,0,22,0,89.1,0
7/4/2003 2:00,26.1,0,60.7,0,27.6,0,24,0,22,0,88.8,0
7/4/2003 2:15,26,0,60.3,0,27.6,0,24.1,0,22,0,89.1,0
7/4/2003 2:30,25.9,0,60.6,0,27.6,0,24.1,0,22,0,89.3,0
7/4/2003 2:45,25.8,0,61.6,0,27.6,0,24.1,0,22.1,0,89.6,0
7/4/2003 3:00,25.6,0,60.6,0,27.6,0,24.1,0,22.1,0,89.8,0
7/4/2003 3:15,25.6,0,60.6,0,27.6,0,24.2,0,22.2,0,89.8,0
7/4/2003 3:30,25.5,0,58.5,0,27.5,0,24.2,0,22.3,0,89.8,0
7/4/2003 3:45,25.4,0,58.5,0,27.6,0,24.2,0,22.5,0,89.8,0
7/4/2003 4:00,25.4,0,58.7,0,27.5,0,24.3,0,22.6,0,89.8,0
7/4/2003 4:15,25.5,0,59.1,0,27.5,0,24.3,0,22.9,0,89.6,0
7/4/2003 4:30,25.6,0,58.1,0,27.5,0,24.3,0,23.1,0,89.3,0
7/4/2003 4:45,25.5,0,57.9,0,27.4,0,24.3,0,23.4,0,89.1,0
7/4/2003 5:00,25.5,0,56.7,0,27.4,0,23.2,0,23.7,0,88.8,0
7/4/2003 5:15,25.5,0,57.9,0,27.4,0,23.2,0,23.5,0,89.1,0
7/4/2003 5:30,25.6,0,58.4,0,27.4,0,23.3,0,23.3,0,89.3,0
7/4/2003 5:45,25.7,0,59.5,0,27.3,0,23.3,0,23.1,0,89.6,0
7/4/2003 6:00,25.8,0,59.7,0,27.3,0,23.4,0,22.9,0,89.8,0
7/4/2003 6:15,25.9,0,60,0,27.3,0,23.4,0,22.6,0,89.8,0
7/4/2003 6:30,26,0,61.3,0,27.3,0,23.4,0,22.4,0,89.8,0
7/4/2003 6:45,26.1,0,62.2,0,27.3,0,23.1,0,22.1,0,89.8,0
7/4/2003 7:00,26.2,0,62.2,0,27.2,0,23.2,0,21.9,0,89.8,0
7/4/2003 7:15,26.3,0,55,0,26.7,0,23.2,0,22,0,89.6,0
7/4/2003 7:30,26.3,0,59.2,0,26.7,0,23.3,0,22.1,0,89.3,0
7/4/2003 7:45,26.3,0,60,0,26.6,0,23.3,0,22.2,0,89.1,0
7/4/2003 8:00,26.4,0,63.6,0,26.7,0,23.1,0,22.3,0,88.8,0
7/4/2003 8:15,26.4,0,65.3,0,26.7,0,23.2,0,22.3,0,88.1,0
7/4/2003 8:30,26.4,0,64.7,0,26.7,0,23.2,0,22.3,0,87.3,0
7/4/2003 8:45,26.5,0,65.5,0,26.7,0,23.3,0,22.4,0,86.6,0
7/4/2003 9:00,26.5,0,65.4,0,26.7,0,23.3,0,22.4,0,85.8,0
7/4/2003 9:15,26.5,0,66.1,0,26.7,0,23.3,0,22.6,0,84.8,0
7/4/2003 9:30,26.5,0,65.8,0,26.7,0,23.4,0,22.7,0,83.8,0
7/4/2003 9:45,26.6,0,65.8,0,26.7,0,23.4,0,22.9,0,82.8,0
7/4/2003 10:00,26.6,0,65.7,0,26.7,0,23.4,0,23.1,0,81.8,0
7/4/2003 10:15,26.7,0,65.6,0,26.7,0,23.5,0,23.7,0,79.3,0
7/4/2003 10:30,26.8,0,65.5,0,26.8,0,23.5,0,24.4,0,76.8,0
7/4/2003 10:45,26.9,0,65.5,0,26.8,0,23.6,0,25,0,74.3,0
7/4/2003 11:00,27,0,65.1,0,26.9,0,23.6,0,25.7,0,71.8,0
7/4/2003 11:15,27.1,0,65.4,0,27,0,23.6,0,26,0,70.6,0
7/4/2003 11:30,27.3,0,65.4,0,27,0,23.7,0,26.2,0,69.3,0
7/4/2003 11:45,27.4,0,65.4,0,27.1,0,23.7,0,26.5,0,68.1,0
7/4/2003 12:00,27.5,0,65.5,0,27.2,0,23.7,0,26.8,0,66.8,0
7/4/2003 12:15,27.7,0,65.4,0,27.3,0,23.8,0,27.2,0,66.1,0
7/4/2003 12:30,27.9,0,65.7,0,27.4,0,23.8,0,27.5,0,65.3,0
7/4/2003 12:45,28.1,0,64.8,0,27.6,0,23.9,0,27.9,0,64.6,0
7/4/2003 13:00,28.3,0,64.8,0,27.7,0,23.9,0,28.3,0,63.8,0
7/4/2003 13:15,28.6,0,64.8,0,27.8,0,23.9,0,28.5,0,63.8,0
7/4/2003 13:30,28.8,0,64.3,0,28,0,24,0,28.6,0,63.8,0
7/4/2003 13:45,29,0,64.8,0,28.1,0,24,0,28.8,0,63.8,0
7/4/2003 14:00,29.2,0,64.5,0,28.3,0,24,0,29,0,63.8,0
7/4/2003 14:15,29.4,0,64.3,0,28.4,0,24.1,0,28.9,0,63.5,0
7/4/2003 14:30,29.6,0,63.8,0,28.5,0,24.1,0,28.8,0,63.3,0
7/4/2003 14:45,29.8,0,64.1,0,28.6,0,24.1,0,28.7,0,63,0
7/4/2003 15:00,29.9,0,64.4,0,28.8,0,24.2,0,28.6,0,62.8,0
7/4/2003 15:15,30.1,0,64,0,28.9,0,24.2,0,28.6,0,62.8,0
7/4/2003 15:30,30.2,0,63.7,0,29,0,24.3,0,28.6,0,62.8,0
7/4/2003 15:45,30.4,0,63.8,0,29.1,0,24.3,0,28.6,0,62.8,0
7/4/2003 16:00,30.5,0,63.7,0,29.2,0,24.3,0,28.6,0,62.8,0
7/4/2003 16:15,30.7,0,64,0,29.3,0,24.4,0,28.6,0,62.3,0
7/4/2003 16:30,30.9,0,63.8,0,29.4,0,24.4,0,28.5,0,61.8,0
7/4/2003 16:45,31,0,63.7,0,29.5,0,24.5,0,28.5,0,61.3,0
7/4/2003 17:00,31,0,63.6,0,29.6,0,24.5,0,28.5,0,60.8,0
7/4/2003 17:15,31,0,63.4,0,29.6,0,24.5,0,28.4,0,60.5,0
7/4/2003 17:30,31.1,0,63.2,0,29.7,0,24.6,0,28.3,0,60.3,0
7/4/2003 17:45,31.1,0,63.9,0,29.7,0,24.6,0,28.3,0,60,0
7/4/2003 18:00,31,0,64,0,29.8,0,24.6,0,28.2,0,59.8,0
7/4/2003 18:15,30.9,0,64.3,0,29.8,0,24.7,0,27.6,0,62.8,0
7/4/2003 18:30,30.7,0,63.3,0,29.7,0,24.7,0,27,0,65.8,0
7/4/2003 18:45,30.6,0,53.3,0,29.2,0,24.8,0,26.4,0,68.8,0
7/4/2003 19:00,30.3,0,56.8,0,29.1,0,23.7,0,25.8,0,71.8,0
7/4/2003 19:15,30.1,0,59.6,0,29.1,0,23.8,0,25.6,0,71.8,0
7/4/2003 19:30,30,0,60.4,0,29.1,0,23.8,0,25.3,0,71.8,0
7/4/2003 19:45,29.8,0,61.1,0,29.1,0,23.9,0,25.1,0,71.8,0
7/4/2003 20:00,29.7,0,62,0,29,0,23.9,0,24.9,0,71.8,0
7/4/2003 20:15,29.5,0,57.3,0,28.7,0,23.8,0,24.7,0,71.6,0
7/4/2003 20:30,29.4,0,56,0,28.4,0,23.9,0,24.5,0,71.3,0
7/4/2003 20:45,29.2,0,59.6,0,28.5,0,23.9,0,24.4,0,71.1,0
7/4/2003 21:00,29.1,0,55.8,0,28.2,0,23.5,0,24.2,0,70.8,0
7/4/2003 21:15,28.9,0,51.3,0,27.8,0,23.4,0,24,0,71.6,0
7/4/2003 21:30,28.7,0,53,0,27.5,0,23.5,0,23.8,0,72.3,0
7/4/2003 21:45,28.6,0,56.3,0,27.5,0,23.5,0,23.7,0,73.1,0
7/4/2003 22:00,28.4,0,60.6,0,27.6,0,23.6,0,23.5,0,73.8,0
7/4/2003 22:15,28.1,0,60.7,0,27.6,0,23.6,0,23.5,0,73.6,0
7/4/2003 22:30,27.4,0,60.6,0,27.6,0,23.7,0,23.5,0,73.3,0
7/4/2003 22:45,27,0,62,0,27.7,0,23.8,0,23.5,0,73.1,0
7/4/2003 23:00,26.8,0,63,0,27.7,0,23.8,0,23.5,0,72.8,0
7/4/2003 23:15,26.7,0,63.1,0,27.8,0,23.9,0,23.4,0,72.8,0
7/4/2003 23:30,26.6,0,63.1,0,27.8,0,23.9,0,23.3,0,72.8,0
7/4/2003 23:45,26.5,0,62.8,0,27.8,0,24,0,23.3,0,72.8,0
7/5/2003 0:00,26.4,0,62.9,0,27.8,0,24,0,23.2,0,72.8,0
7/5/2003 0:15,26.4,0,62.7,0,27.7,0,24.1,0,23.1,0,72.6,0
7/5/2003 0:30,26.6,0,62.6,0,27.7,0,24.2,0,23,0,72.3,0
7/5/2003 0:45,26.7,0,62.6,0,27.7,0,24.2,0,22.9,0,72.1,0
7/5/2003 1:00,26.8,0,62.8,0,27.6,0,24.3,0,22.8,0,71.8,0
7/5/2003 1:15,26.9,0,62.6,0,27.6,0,24.3,0,22.9,0,72.3,0
7/5/2003 1:30,27,0,62.6,0,27.6,0,24.4,0,23,0,72.8,0
7/5/2003 1:45,27,0,62.5,0,27.5,0,24.4,0,23.1,0,73.3,0
7/5/2003 2:00,27,0,62.5,0,27.5,0,24.5,0,23.2,0,73.8,0
7/5/2003 2:15,27,0,62.5,0,27.4,0,24.5,0,23.3,0,73.6,0
7/5/2003 2:30,27,0,62.3,0,27.4,0,24.6,0,23.3,0,73.3,0
7/5/2003 2:45,27,0,62.3,0,27.4,0,24.6,0,23.4,0,73.1,0
7/5/2003 3:00,27,0,62.2,0,27.3,0,24.7,0,23.5,0,72.8,0
7/5/2003 3:15,26.9,0,62.2,0,27.2,0,24.7,0,23.3,0,74.3,0
7/5/2003 3:30,26.9,0,62.3,0,27.2,0,24.7,0,23,0,75.8,0
7/5/2003 3:45,26.8,0,62,0,27.1,0,24.8,0,22.8,0,77.3,0
7/5/2003 4:00,26.8,0,61.8,0,27,0,24.8,0,22.6,0,78.8,0
7/5/2003 4:15,26.7,0,62.1,0,27,0,24.9,0,22.6,0,78.8,0
7/5/2003 4:30,26.7,0,61.8,0,26.9,0,24.9,0,22.5,0,78.8,0
7/5/2003 4:45,26.6,0,61.6,0,26.8,0,24.9,0,22.5,0,78.8,0
7/5/2003 5:00,26.6,0,61.8,0,26.8,0,25,0,22.5,0,78.8,0
7/5/2003 5:15,26.5,0,62.4,0,26.7,0,25,0,22.9,0,74.6,0
7/5/2003 5:30,26.5,0,62.2,0,26.7,0,25.1,0,23.2,0,70.3,0
7/5/2003 5:45,26.5,0,62.2,0,26.7,0,25.1,0,23.6,0,66.1,0
7/5/2003 6:00,26.5,0,62.5,0,26.7,0,25.2,0,24,0,61.8,0
7/5/2003 6:15,26.5,0,62.2,0,26.7,0,25.2,0,24.1,0,58.5,0
7/5/2003 6:30,26.5,0,61.9,0,26.8,0,25.2,0,24.2,0,55.3,0
7/5/2003 6:45,26.5,0,62.2,0,26.8,0,25.3,0,24.4,0,52,0
7/5/2003 7:00,26.7,0,62.3,0,26.8,0,23.6,0,24.5,0,48.8,0
7/5/2003 7:15,26.8,0,61.4,0,26.8,0,23.3,0,24.7,0,49,0
7/5/2003 7:30,26.9,0,59.7,0,26.9,0,23.4,0,24.9,0,49.3,0
7/5/2003 7:45,27.1,0,59.6,0,26.9,0,23.4,0,25.1,0,49.5,0
7/5/2003 8:00,27.2,0,58.4,0,27,0,23.5,0,25.3,0,49.8,0
7/5/2003 8:15,27.3,0,58.7,0,27,0,23.6,0,25.6,0,49,0
7/5/2003 8:30,27.5,0,58.9,0,27.1,0,23.6,0,25.9,0,48.3,0
7/5/2003 8:45,27.6,0,56.3,0,27.1,0,23.7,0,26.2,0,47.5,0
7/5/2003 9:00,27.8,0,56.4,0,27.2,0,23.7,0,26.5,0,46.8,0